| time (UTC) | temp F | wind direction | speed knots | gust knots | rain 1hr in | rain 24hr in | rain mn in | humidity % | barometer mb |
| 20260906185800 | 77 | 96 | 0.0 | 1.7 | 0.00 | 0.02 | 0.02 | 83 | 1025.1 |
| 20260906185301 | 77 | 112 | 0.0 | 0.9 | 0.00 | 0.02 | 0.02 | 82 | 1025.0 |
| 20260906184800 | 78 | 143 | 0.0 | 0.0 | 0.00 | 0.02 | 0.02 | 81 | 1025.0 |
| 20260906184300 | 78 | 114 | 0.0 | 0.9 | 0.00 | 0.02 | 0.02 | 79 | 1024.9 |
| 20260906183759 | 78 | 110 | 0.0 | 0.0 | 0.00 | 0.02 | 0.02 | 78 | 1024.9 |
| 20260906183301 | 78 | 141 | 0.0 | 0.9 | 0.00 | 0.02 | 0.02 | 78 | 1024.8 |
| 20260906182801 | 79 | 150 | 0.0 | 0.9 | 0.00 | 0.02 | 0.02 | 76 | 1024.7 |
| 20260906182305 | 79 | 212 | 0.0 | 0.0 | 0.00 | 0.02 | 0.02 | 75 | 1024.7 |
| 20260906181300 | 79 | 204 | 0.0 | 0.9 | 0.00 | 0.02 | 0.02 | 74 | 1024.6 |
| 20260906180801 | 79 | 205 | 0.0 | 0.9 | 0.00 | 0.02 | 0.02 | 74 | 1024.5 |
| 20260906175800 | 80 | 219 | 0.0 | 1.7 | 0.00 | 0.02 | 0.02 | 74 | 1024.5 |
| 20260906175300 | 80 | 173 | 0.0 | 0.0 | 0.00 | 0.02 | 0.02 | 74 | 1024.3 |
| 20260906174259 | 80 | 213 | 0.0 | 0.9 | 0.00 | 0.02 | 0.02 | 73 | 1024.3 |
| 20260906173756 | 81 | 210 | 0.0 | 2.6 | 0.00 | 0.02 | 0.02 | 73 | 1024.3 |
| 20260906173254 | 81 | 129 | 0.0 | 2.6 | 0.00 | 0.02 | 0.02 | 72 | 1024.3 |
| 20260906172754 | 82 | 157 | 0.0 | 1.7 | 0.00 | 0.02 | 0.02 | 70 | 1024.2 |
| 20260906172253 | 83 | 166 | 0.0 | 3.5 | 0.00 | 0.02 | 0.02 | 68 | 1024.2 |
| 20260906171753 | 84 | 136 | 0.0 | 3.5 | 0.00 | 0.02 | 0.02 | 67 | 1024.1 |
| 20260906171254 | 84 | 204 | 0.0 | 1.7 | 0.00 | 0.02 | 0.02 | 66 | 1024.1 |
| 20260906170753 | 84 | 267 | 0.9 | 3.5 | 0.00 | 0.02 | 0.02 | 66 | 1024.1 |
| 20260906170253 | 85 | 204 | 0.9 | 4.3 | 0.00 | 0.02 | 0.02 | 66 | 1024.1 |
| 20260906165752 | 84 | 210 | 1.7 | 6.1 | 0.00 | 0.02 | 0.02 | 66 | 1024.1 |
| 20260906165250 | 85 | 288 | 1.7 | 6.1 | 0.00 | 0.02 | 0.02 | 65 | 1024.1 |
| 20260906164745 | 86 | 259 | 0.9 | 4.3 | 0.00 | 0.02 | 0.02 | 64 | 1024.1 |
| 20260906164245 | 86 | 257 | 1.7 | 4.3 | 0.00 | 0.02 | 0.02 | 64 | 1024.1 |
| 20260906163746 | 86 | 210 | 1.7 | 4.3 | 0.00 | 0.02 | 0.02 | 64 | 1024.0 |
| 20260906163247 | 86 | 218 | 1.7 | 4.3 | 0.00 | 0.02 | 0.02 | 63 | 1024.1 |
| 20260906162744 | 87 | 206 | 1.7 | 5.2 | 0.00 | 0.02 | 0.02 | 63 | 1024.0 |
| 20260906162242 | 87 | 215 | 1.7 | 5.2 | 0.00 | 0.02 | 0.02 | 62 | 1023.9 |
| 20260906161243 | 87 | 233 | 2.6 | 6.1 | 0.00 | 0.02 | 0.02 | 61 | 1023.9 |
| 20260906160741 | 87 | 226 | 2.6 | 8.7 | 0.00 | 0.02 | 0.02 | 61 | 1023.9 |
| 20260906155740 | 87 | 223 | 2.6 | 8.7 | 0.00 | 0.02 | 0.02 | 61 | 1023.9 |
| 20260906155239 | 88 | 224 | 1.7 | 7.0 | 0.00 | 0.02 | 0.02 | 59 | 1024.0 |
| 20260906154739 | 88 | 191 | 0.9 | 4.3 | 0.00 | 0.02 | 0.02 | 56 | 1024.0 |
| 20260906154237 | 89 | 159 | 0.9 | 4.3 | 0.00 | 0.02 | 0.02 | 49 | 1023.9 |
| 20260906153239 | 90 | 118 | 0.9 | 4.3 | 0.00 | 0.02 | 0.02 | 39 | 1023.9 |
| 20260906152239 | 89 | 221 | 1.7 | 6.1 | 0.00 | 0.02 | 0.02 | 40 | 1023.9 |
| 20260906151737 | 89 | 226 | 1.7 | 6.1 | 0.00 | 0.02 | 0.02 | 40 | 1023.9 |
| 20260906151236 | 90 | 153 | 0.9 | 4.3 | 0.00 | 0.02 | 0.02 | 41 | 1024.0 |
| 20260906150733 | 89 | 110 | 0.9 | 3.5 | 0.00 | 0.02 | 0.02 | 40 | 1023.9 |
| 20260906145734 | 89 | 212 | 2.6 | 7.0 | 0.00 | 0.02 | 0.02 | 43 | 1024.0 |
| 20260906144735 | 89 | 155 | 1.7 | 7.0 | 0.00 | 0.02 | 0.02 | 42 | 1024.0 |
| 20260906144233 | 88 | 228 | 2.6 | 7.0 | 0.00 | 0.02 | 0.02 | 41 | 1024.1 |
| 20260906143733 | 89 | 129 | 1.7 | 6.1 | 0.00 | 0.02 | 0.02 | 41 | 1024.1 |
| 20260906143227 | 89 | 274 | 1.7 | 5.2 | 0.00 | 0.02 | 0.02 | 42 | 1024.1 |
| 20260906142721 | 89 | 226 | 1.7 | 4.3 | 0.00 | 0.02 | 0.02 | 43 | 1024.1 |
| 20260906142216 | 89 | 210 | 0.9 | 4.3 | 0.00 | 0.02 | 0.02 | 43 | 1024.1 |
| 20260906141717 | 88 | 198 | 0.9 | 3.5 | 0.00 | 0.02 | 0.02 | 42 | 1024.2 |
| 20260906141219 | 88 | 211 | 1.7 | 6.1 | 0.00 | 0.02 | 0.02 | 44 | 1024.2 |
| 20260906140716 | 88 | 206 | 1.7 | 6.1 | 0.00 | 0.02 | 0.02 | 46 | 1024.1 |
| 20260906140216 | 88 | 210 | 1.7 | 6.1 | 0.00 | 0.02 | 0.02 | 46 | 1024.2 |
| 20260906135715 | 88 | 197 | 1.7 | 5.2 | 0.00 | 0.02 | 0.02 | 44 | 1024.1 |
| 20260906135213 | 88 | 212 | 1.7 | 6.1 | 0.00 | 0.02 | 0.02 | 46 | 1024.1 |
| 20260906134711 | 88 | 204 | 2.6 | 6.1 | 0.00 | 0.02 | 0.02 | 45 | 1024.2 |
| 20260906133712 | 88 | 168 | 1.7 | 5.2 | 0.00 | 0.02 | 0.02 | 46 | 1024.2 |
| 20260906133210 | 88 | 238 | 1.7 | 6.1 | 0.00 | 0.02 | 0.02 | 48 | 1024.1 |
| 20260906132713 | 88 | 223 | 1.7 | 6.1 | 0.00 | 0.02 | 0.02 | 47 | 1024.2 |
| 20260906132213 | 88 | 176 | 1.7 | 5.2 | 0.00 | 0.02 | 0.02 | 48 | 1024.2 |
| 20260906131713 | 88 | 145 | 0.9 | 5.2 | 0.00 | 0.02 | 0.02 | 49 | 1024.2 |
| 20260906131212 | 87 | 272 | 0.9 | 4.3 | 0.00 | 0.02 | 0.02 | 49 | 1024.3 |
| 20260906130722 | 87 | 207 | 0.9 | 4.3 | 0.00 | 0.02 | 0.02 | 47 | 1024.3 |
| 20260906125710 | 87 | 214 | 1.7 | 5.2 | 0.00 | 0.02 | 0.02 | 50 | 1024.5 |
| 20260906125211 | 87 | 216 | 0.9 | 5.2 | 0.00 | 0.02 | 0.02 | 51 | 1024.5 |
| 20260906124708 | 87 | 222 | 0.9 | 4.3 | 0.00 | 0.02 | 0.02 | 54 | 1024.5 |
| 20260906124209 | 87 | 274 | 0.9 | 4.3 | 0.00 | 0.02 | 0.02 | 53 | 1024.6 |
| 20260906122709 | 86 | 241 | 0.9 | 4.3 | 0.00 | 0.02 | 0.02 | 56 | 1024.6 |
| 20260906122207 | 86 | 251 | 0.0 | 3.5 | 0.00 | 0.02 | 0.02 | 56 | 1024.6 |
| 20260906121705 | 87 | 158 | 0.9 | 4.3 | 0.00 | 0.02 | 0.02 | 57 | 1024.6 |
| 20260906121206 | 85 | 169 | 0.9 | 4.3 | 0.00 | 0.02 | 0.02 | 59 | 1024.7 |
| 20260906120705 | 85 | 207 | 1.7 | 5.2 | 0.00 | 0.02 | 0.02 | 59 | 1024.8 |
| 20260906120206 | 85 | 238 | 1.7 | 5.2 | 0.00 | 0.02 | 0.02 | 59 | 1024.7 |
| 20260906115707 | 85 | 159 | 1.7 | 7.0 | 0.00 | 0.02 | 0.02 | 58 | 1024.8 |
| 20260906115206 | 84 | 259 | 1.7 | 7.0 | 0.00 | 0.02 | 0.02 | 59 | 1024.7 |
| 20260906114706 | 84 | 207 | 0.9 | 4.3 | 0.00 | 0.02 | 0.02 | 60 | 1024.7 |
| 20260906113703 | 84 | 202 | 1.7 | 5.2 | 0.00 | 0.02 | 0.02 | 61 | 1024.7 |
| 20260906113202 | 84 | 212 | 1.7 | 6.1 | 0.00 | 0.02 | 0.02 | 63 | 1024.6 |
| 20260906112703 | 84 | 148 | 0.9 | 6.1 | 0.00 | 0.02 | 0.02 | 62 | 1024.7 |
| 20260906112200 | 84 | 253 | 0.9 | 5.2 | 0.00 | 0.02 | 0.02 | 63 | 1024.7 |
| 20260906111703 | 84 | 233 | 1.7 | 7.0 | 0.00 | 0.02 | 0.02 | 64 | 1024.7 |
| 20260906111202 | 84 | 145 | 0.9 | 7.0 | 0.00 | 0.02 | 0.02 | 64 | 1024.8 |
| 20260906110158 | 83 | 166 | 1.7 | 5.2 | 0.00 | 0.02 | 0.02 | 66 | 1024.8 |
| 20260906105659 | 83 | 242 | 1.7 | 4.3 | 0.00 | 0.02 | 0.02 | 67 | 1024.8 |
| 20260906105157 | 83 | 175 | 1.7 | 5.2 | 0.00 | 0.02 | 0.02 | 68 | 1024.8 |
| 20260906104659 | 82 | 255 | 1.7 | 5.2 | 0.00 | 0.02 | 0.02 | 69 | 1024.8 |
| 20260906104159 | 82 | 216 | 0.9 | 5.2 | 0.00 | 0.02 | 0.02 | 70 | 1024.7 |
| 20260906103655 | 82 | 223 | 1.7 | 5.2 | 0.00 | 0.02 | 0.02 | 71 | 1024.8 |
| 20260906103157 | 82 | 219 | 1.7 | 4.3 | 0.00 | 0.02 | 0.02 | 70 | 1024.9 |
| 20260906102656 | 82 | 264 | 0.9 | 4.3 | 0.00 | 0.02 | 0.02 | 71 | 1024.9 |
| 20260906102155 | 81 | 195 | 0.9 | 6.1 | 0.00 | 0.02 | 0.02 | 73 | 1024.9 |
| 20260906101653 | 81 | 231 | 1.7 | 6.1 | 0.00 | 0.02 | 0.02 | 72 | 1024.9 |
| 20260906101152 | 81 | 153 | 1.7 | 6.1 | 0.00 | 0.02 | 0.02 | 74 | 1024.9 |
| 20260906100654 | 81 | 148 | 1.7 | 6.1 | 0.00 | 0.02 | 0.02 | 73 | 1024.9 |
| 20260906100148 | 81 | 153 | 1.7 | 8.7 | 0.00 | 0.02 | 0.02 | 74 | 1025.0 |
| 20260906095649 | 81 | 203 | 1.7 | 8.7 | 0.00 | 0.02 | 0.02 | 74 | 1024.9 |
| 20260906095149 | 81 | 235 | 0.9 | 4.3 | 0.00 | 0.02 | 0.02 | 73 | 1025.0 |
| 20260906094652 | 81 | 212 | 0.9 | 5.2 | 0.00 | 0.02 | 0.02 | 74 | 1025.0 |
| 20260906094151 | 80 | 255 | 0.9 | 5.2 | 0.00 | 0.02 | 0.02 | 73 | 1024.9 |
| 20260906093648 | 80 | 210 | 0.9 | 3.5 | 0.00 | 0.02 | 0.02 | 74 | 1024.9 |
| 20260906093148 | 80 | 266 | 0.9 | 3.5 | 0.00 | 0.02 | 0.02 | 74 | 1025.0 |
| 20260906092648 | 80 | 96 | 0.9 | 3.5 | 0.00 | 0.02 | 0.02 | 75 | 1025.0 |
| 20260906092151 | 80 | 122 | 1.7 | 3.5 | 0.00 | 0.02 | 0.02 | 74 | 1025.0 |
| 20260906091651 | 80 | 99 | 1.7 | 5.2 | 0.00 | 0.02 | 0.02 | 77 | 1025.0 |
| 20260906091149 | 80 | 93 | 2.6 | 7.0 | 0.00 | 0.02 | 0.02 | 76 | 1025.1 |
| 20260906090648 | 79 | 35 | 2.6 | 7.0 | 0.00 | 0.02 | 0.02 | 70 | 1025.0 |
| 20260906090151 | 79 | 39 | 0.9 | 7.0 | 0.00 | 0.02 | 0.02 | 68 | 1025.0 |
| 20260906085649 | 79 | 139 | 0.9 | 4.3 | 0.00 | 0.02 | 0.02 | 77 | 1025.0 |
| 20260906085149 | 79 | 25 | 0.0 | 4.3 | 0.00 | 0.02 | 0.02 | 71 | 1024.9 |
| 20260906084649 | 78 | 106 | 0.9 | 4.3 | 0.00 | 0.02 | 0.02 | 71 | 1024.8 |
| 20260906084148 | 78 | 105 | 0.9 | 4.3 | 0.00 | 0.02 | 0.02 | 73 | 1024.8 |
| 20260906083648 | 77 | 15 | 0.9 | 3.5 | 0.00 | 0.02 | 0.02 | 79 | 1024.8 |
| 20260906082646 | 76 | 233 | 0.0 | 2.6 | 0.00 | 0.02 | 0.02 | 82 | 1024.6 |
| 20260906081646 | 76 | 203 | 0.9 | 3.5 | 0.00 | 0.02 | 0.02 | 84 | 1024.6 |
| 20260906081145 | 77 | 146 | 0.0 | 2.6 | 0.00 | 0.02 | 0.02 | 84 | 1024.6 |
| 20260906080644 | 76 | 201 | 0.9 | 2.6 | 0.00 | 0.02 | 0.02 | 86 | 1024.5 |
| 20260906080144 | 75 | 212 | 0.9 | 2.6 | 0.00 | 0.02 | 0.02 | 87 | 1024.5 |
| 20260906075645 | 75 | 271 | 0.0 | 1.7 | 0.00 | 0.02 | 0.02 | 87 | 1024.3 |
| 20260906075144 | 74 | 276 | 0.0 | 0.0 | 0.00 | 0.02 | 0.02 | 89 | 1024.3 |
| 20260906074145 | 74 | 267 | 0.0 | 0.9 | 0.00 | 0.02 | 0.02 | 88 | 1024.2 |
| 20260906073644 | 73 | 263 | 0.0 | 0.0 | 0.00 | 0.02 | 0.02 | 89 | 1024.1 |
| 20260906072642 | 71 | 264 | 0.0 | 0.0 | 0.00 | 0.02 | 0.02 | 91 | 1024.1 |
| 20260906072143 | 71 | 269 | 0.0 | 0.0 | 0.00 | 0.02 | 0.02 | 90 | 1024.1 |
| 20260906071639 | 71 | 269 | 0.0 | 0.9 | 0.00 | 0.02 | 0.02 | 89 | 1024.1 |
| 20260906071138 | 72 | 271 | 0.0 | 2.6 | 0.00 | 0.02 | 0.02 | 88 | 1024.0 |
| 20260906070638 | 73 | 250 | 0.0 | 2.6 | 0.00 | 0.02 | 0.02 | 86 | 1024.1 |
| 20260906065638 | 73 | 120 | 0.0 | 1.7 | 0.00 | 0.02 | 0.02 | 90 | 1023.9 |
| 20260906065136 | 73 | 86 | 0.0 | 1.7 | 0.00 | 0.02 | 0.02 | 91 | 1023.9 |
| 20260906064629 | 73 | 77 | 0.0 | 1.7 | 0.00 | 0.02 | 0.02 | 91 | 1023.9 |
| 20260906064124 | 72 | 76 | 0.0 | 1.7 | 0.00 | 0.02 | 0.02 | 92 | 1023.9 |
| 20260906063624 | 72 | 35 | 0.0 | 1.7 | 0.00 | 0.02 | 0.02 | 92 | 1023.8 |
| 20260906062625 | 71 | 75 | 0.0 | 0.9 | 0.00 | 0.02 | 0.02 | 94 | 1023.8 |
| 20260906062123 | 70 | 23 | 0.0 | 0.9 | 0.00 | 0.02 | 0.02 | 94 | 1023.8 |
| 20260906061622 | 69 | 23 | 0.0 | 0.9 | 0.00 | 0.02 | 0.02 | 94 | 1023.7 |
| 20260906061120 | 69 | 163 | 0.0 | 1.7 | 0.00 | 0.02 | 0.02 | 94 | 1023.8 |
| 20260906060620 | 68 | 163 | 0.0 | 1.7 | 0.00 | 0.02 | 0.02 | 95 | 1023.7 |
| 20260906060124 | 68 | 25 | 0.0 | 1.7 | 0.00 | 0.02 | 0.02 | 95 | 1023.6 |
| 20260906055622 | 68 | 49 | 0.0 | 1.7 | 0.00 | 0.02 | 0.02 | 95 | 1023.7 |
| 20260906055119 | 67 | 37 | 0.0 | 0.9 | 0.00 | 0.02 | 0.02 | 96 | 1023.6 |
| 20260906054618 | 67 | 35 | 0.9 | 1.7 | 0.00 | 0.02 | 0.02 | 96 | 1023.6 |
| 20260906054120 | 66 | 35 | 1.7 | 2.6 | 0.00 | 0.02 | 0.02 | 96 | 1023.6 |
| 20260906053111 | 66 | 23 | 0.9 | 3.5 | 0.00 | 0.02 | 0.02 | 96 | 1023.5 |
| 20260906052104 | 65 | 25 | 1.7 | 2.6 | 0.00 | 0.02 | 0.02 | 97 | 1023.5 |
| 20260906051604 | 65 | 31 | 1.7 | 3.5 | 0.00 | 0.02 | 0.02 | 97 | 1023.4 |
| 20260906051106 | 65 | 27 | 2.6 | 3.5 | 0.00 | 0.02 | 0.02 | 97 | 1023.3 |
| 20260906050604 | 65 | 30 | 1.7 | 3.5 | 0.00 | 0.02 | 0.02 | 97 | 1023.3 |
| 20260906050105 | 65 | 32 | 1.7 | 3.5 | 0.00 | 0.02 | 0.02 | 97 | 1023.3 |
| 20260906045606 | 65 | 26 | 0.9 | 2.6 | 0.00 | 0.02 | 0.02 | 97 | 1023.3 |
| 20260906045102 | 65 | 31 | 0.9 | 1.7 | 0.00 | 0.02 | 0.02 | 97 | 1023.2 |
| 20260906044601 | 65 | 32 | 0.9 | 1.7 | 0.00 | 0.02 | 0.02 | 97 | 1023.3 |
| 20260906044101 | 65 | 32 | 0.9 | 1.7 | 0.00 | 0.02 | 0.02 | 97 | 1023.3 |
| 20260906043558 | 65 | 32 | 0.9 | 1.7 | 0.00 | 0.02 | 0.02 | 97 | 1023.2 |
| 20260906043057 | 65 | 30 | 0.9 | 2.6 | 0.00 | 0.02 | 0.02 | 97 | 1023.3 |
| 20260906042103 | 65 | 30 | 0.9 | 1.7 | 0.01 | 0.02 | 0.02 | 97 | 1023.2 |
| 20260906041554 | 65 | 37 | 0.9 | 1.7 | 0.01 | 0.02 | 0.02 | 97 | 1023.2 |
| 20260906041048 | 65 | 23 | 0.9 | 2.6 | 0.01 | 0.02 | 0.02 | 97 | 1023.2 |
| 20260906040543 | 65 | 35 | 0.9 | 3.5 | 0.01 | 0.02 | 0.02 | 97 | 1023.2 |
| 20260906040045 | 66 | 34 | 0.0 | 3.5 | 0.01 | 0.02 | 0.02 | 97 | 1023.2 |
| 20260906035544 | 67 | 36 | 0.0 | 1.7 | 0.01 | 0.02 | 0.02 | 97 | 1023.1 |
| 20260906035043 | 67 | 55 | 0.0 | 1.7 | 0.01 | 0.02 | 0.02 | 97 | 1023.1 |
| 20260906034042 | 67 | 54 | 0.0 | 2.6 | 0.01 | 0.02 | 0.02 | 98 | 1023.1 |
| 20260906033544 | 67 | 36 | 0.0 | 2.6 | 0.01 | 0.02 | 0.02 | 98 | 1023.0 |
| 20260906033045 | 67 | 45 | 0.0 | 1.7 | 0.01 | 0.02 | 0.02 | 98 | 1023.0 |
| 20260906032541 | 67 | 22 | 0.0 | 1.7 | 0.01 | 0.02 | 0.02 | 98 | 1023.0 |
| 20260906032040 | 66 | 20 | 0.0 | 2.6 | 0.00 | 0.01 | 0.02 | 97 | 1023.0 |
| 20260906031537 | 66 | 25 | 0.0 | 2.6 | 0.00 | 0.01 | 0.01 | 97 | 1023.0 |
| 20260906031038 | 66 | 13 | 0.9 | 3.5 | 0.00 | 0.01 | 0.01 | 97 | 1023.0 |
| 20260906030536 | 66 | 31 | 1.7 | 6.1 | 0.00 | 0.01 | 0.01 | 97 | 1023.0 |
| 20260906030035 | 66 | 49 | 1.7 | 6.1 | 0.00 | 0.01 | 0.01 | 97 | 1022.9 |
| 20260906025531 | 67 | 58 | 0.9 | 4.3 | 0.00 | 0.01 | 0.01 | 97 | 1023.0 |
| 20260906024032 | 67 | 20 | 0.9 | 2.6 | 0.00 | 0.01 | 0.01 | 97 | 1023.0 |
| 20260906023533 | 67 | 51 | 0.0 | 2.6 | 0.00 | 0.01 | 0.01 | 97 | 1022.9 |
| 20260906023032 | 67 | 40 | 0.0 | 2.6 | 0.00 | 0.01 | 0.01 | 97 | 1023.0 |
| 20260906022028 | 68 | 77 | 0.9 | 2.6 | 0.00 | 0.01 | 0.01 | 97 | 1023.0 |
| 20260906021028 | 67 | 34 | 0.0 | 2.6 | 0.00 | 0.01 | 0.01 | 97 | 1023.0 |
| 20260906020529 | 67 | 30 | 0.0 | 2.6 | 0.00 | 0.01 | 0.01 | 97 | 1023.1 |
| 20260906020030 | 67 | 27 | 0.0 | 2.6 | 0.00 | 0.01 | 0.01 | 97 | 1023.1 |
| 20260906015529 | 67 | 18 | 0.0 | 3.5 | 0.00 | 0.01 | 0.01 | 97 | 1023.1 |
| 20260906015025 | 67 | 51 | 0.0 | 3.5 | 0.00 | 0.01 | 0.01 | 97 | 1023.0 |
| 20260906014524 | 67 | 27 | 0.0 | 1.7 | 0.00 | 0.01 | 0.01 | 97 | 1022.9 |
| 20260906013514 | 67 | 30 | 0.0 | 1.7 | 0.00 | 0.01 | 0.01 | 97 | 1023.1 |
| 20260906012510 | 67 | 27 | 0.9 | 1.7 | 0.00 | 0.01 | 0.01 | 97 | 1023.0 |
| 20260906012007 | 67 | 23 | 0.0 | 1.7 | 0.01 | 0.01 | 0.01 | 97 | 1023.1 |
| 20260906011508 | 67 | 16 | 0.0 | 1.7 | 0.01 | 0.01 | 0.01 | 97 | 1023.2 |
| 20260906011007 | 67 | 16 | 0.9 | 1.7 | 0.01 | 0.01 | 0.01 | 97 | 1023.2 |
| 20260906010005 | 67 | 11 | 0.9 | 1.7 | 0.01 | 0.01 | 0.01 | 97 | 1023.3 |
| 20260906005006 | 67 | 356 | 0.0 | 1.7 | 0.01 | 0.01 | 0.01 | 97 | 1023.3 |
| 20260906004506 | 67 | 342 | 0.0 | 0.9 | 0.01 | 0.01 | 0.01 | 97 | 1023.3 |
| 20260906003459 | 68 | 352 | 0.9 | 2.6 | 0.01 | 0.01 | 0.01 | 97 | 1023.3 |
| 20260906002500 | 68 | 342 | 0.9 | 3.5 | 0.00 | 0.00 | 0.01 | 96 | 1023.3 |
| 20260906002002 | 69 | 334 | 0.0 | 2.6 | 0.00 | 0.00 | 0.00 | 96 | 1023.4 |
| 20260906001459 | 69 | 354 | 0.0 | 2.6 | 0.00 | 0.00 | 0.00 | 97 | 1023.3 |
| 20260906001002 | 69 | 7 | 0.0 | 0.0 | 0.00 | 0.00 | 0.00 | 97 | 1023.4 |
| 20260906000000 | 69 | 359 | 0.0 | 1.7 | 0.00 | 0.00 | 0.00 | 97 | 1023.2 |
| 20260905235459 | 69 | 359 | 0.9 | 1.7 | 0.00 | 0.00 | 0.00 | 97 | 1023.3 |
| 20260905235003 | 69 | 359 | 0.9 | 1.7 | 0.00 | 0.00 | 0.00 | 96 | 1023.3 |
| 20260905234500 | 69 | 17 | 0.0 | 1.7 | 0.00 | 0.00 | 0.00 | 96 | 1023.3 |
| 20260905233959 | 69 | 356 | 0.0 | 1.7 | 0.00 | 0.00 | 0.00 | 96 | 1023.3 |
| 20260905233513 | 70 | 20 | 0.0 | 0.9 | 0.00 | 0.00 | 0.00 | 96 | 1023.4 |
| 20260905233000 | 70 | 96 | 0.0 | 0.9 | 0.00 | 0.00 | 0.00 | 96 | 1023.3 |
| 20260905232501 | 70 | 96 | 0.0 | 0.0 | 0.00 | 0.00 | 0.00 | 96 | 1023.3 |
| 20260905232002 | 70 | 96 | 0.0 | 0.0 | 0.00 | 0.00 | 0.00 | 96 | 1023.3 |
| 20260905231459 | 70 | 127 | 0.0 | 0.0 | 0.00 | 0.00 | 0.00 | 96 | 1023.4 |
| 20260905230459 | 70 | 127 | 0.0 | 0.0 | 0.00 | 0.00 | 0.00 | 96 | 1023.3 |
| 20260905225957 | 70 | 127 | 0.0 | 0.0 | 0.00 | 0.00 | 0.00 | 96 | 1023.4 |
| 20260905225458 | 70 | 127 | 0.0 | 0.0 | 0.00 | 0.00 | 0.00 | 96 | 1023.6 |
| 20260905224957 | 70 | 127 | 0.0 | 0.9 | 0.00 | 0.00 | 0.00 | 96 | 1023.5 |
| 20260905223953 | 70 | 139 | 0.0 | 1.7 | 0.00 | 0.00 | 0.00 | 96 | 1023.4 |
| 20260905222954 | 70 | 110 | 0.0 | 0.9 | 0.00 | 0.00 | 0.00 | 96 | 1023.4 |
| 20260905222456 | 70 | 117 | 0.0 | 0.0 | 0.00 | 0.00 | 0.00 | 96 | 1023.5 |
| 20260905221955 | 70 | 117 | 0.0 | 0.0 | 0.00 | 0.00 | 0.00 | 96 | 1023.5 |
| 20260905221455 | 70 | 117 | 0.0 | 0.0 | 0.00 | 0.00 | 0.00 | 96 | 1023.4 |
| 20260905220956 | 70 | 117 | 0.0 | 0.0 | 0.00 | 0.00 | 0.00 | 96 | 1023.4 |
| 20260905220456 | 70 | 117 | 0.0 | 0.0 | 0.00 | 0.00 | 0.00 | 96 | 1023.4 |
| 20260905215954 | 70 | 117 | 0.0 | 0.0 | 0.00 | 0.00 | 0.00 | 96 | 1023.3 |
| 20260905215453 | 70 | 112 | 0.0 | 0.9 | 0.00 | 0.00 | 0.00 | 95 | 1023.2 |
| 20260905214952 | 70 | 93 | 0.0 | 0.9 | 0.00 | 0.00 | 0.00 | 95 | 1023.3 |
| 20260905214450 | 70 | 87 | 0.0 | 1.7 | 0.00 | 0.00 | 0.00 | 95 | 1023.2 |
| 20260905213950 | 70 | 100 | 0.0 | 1.7 | 0.00 | 0.00 | 0.00 | 95 | 1023.1 |
| 20260905213451 | 70 | 94 | 0.0 | 0.9 | 0.00 | 0.00 | 0.00 | 95 | 1023.1 |
| 20260905212952 | 70 | 103 | 0.0 | 0.9 | 0.00 | 0.00 | 0.00 | 95 | 1023.1 |
| 20260905212449 | 70 | 112 | 0.0 | 0.9 | 0.00 | 0.00 | 0.00 | 95 | 1023.1 |
| 20260905211952 | 70 | 156 | 0.0 | 0.0 | 0.00 | 0.00 | 0.00 | 94 | 1023.1 |
| 20260905211449 | 69 | 232 | 0.0 | 0.0 | 0.00 | 0.00 | 0.00 | 94 | 1023.1 |
| 20260905210950 | 70 | 232 | 0.0 | 0.0 | 0.00 | 0.00 | 0.00 | 94 | 1023.2 |
| 20260905210450 | 69 | 232 | 0.0 | 0.0 | 0.00 | 0.00 | 0.00 | 93 | 1023.0 |
| 20260905205951 | 69 | 232 | 0.0 | 0.0 | 0.00 | 0.00 | 0.00 | 94 | 1023.1 |
| 20260905205453 | 69 | 232 | 0.0 | 0.0 | 0.00 | 0.00 | 0.00 | 93 | 1023.1 |
| 20260905204953 | 70 | 232 | 0.0 | 0.0 | 0.00 | 0.00 | 0.00 | 93 | 1023.1 |
| 20260905204449 | 70 | 232 | 0.0 | 0.0 | 0.00 | 0.00 | 0.00 | 92 | 1023.1 |
| 20260905203949 | 70 | 232 | 0.0 | 0.0 | 0.00 | 0.00 | 0.00 | 92 | 1023.1 |
| 20260905203449 | 70 | 232 | 0.0 | 0.0 | 0.00 | 0.00 | 0.00 | 92 | 1023.2 |
| 20260905202447 | 70 | 232 | 0.0 | 0.0 | 0.00 | 0.00 | 0.00 | 92 | 1023.2 |
| 20260905201950 | 71 | 232 | 0.0 | 0.0 | 0.00 | 0.00 | 0.00 | 91 | 1023.2 |
| 20260905201450 | 71 | 232 | 0.0 | 1.7 | 0.00 | 0.00 | 0.00 | 91 | 1023.2 |
| 20260905200947 | 71 | 249 | 0.0 | 1.7 | 0.00 | 0.00 | 0.00 | 92 | 1023.2 |
| 20260905200450 | 71 | 244 | 0.0 | 0.9 | 0.00 | 0.00 | 0.00 | 92 | 1023.0 |
| 20260905195948 | 71 | 244 | 0.0 | 0.9 | 0.00 | 0.00 | 0.00 | 92 | 1023.1 |
| 20260905195450 | 71 | 244 | 0.0 | 1.7 | 0.00 | 0.00 | 0.00 | 92 | 1023.1 |
| 20260905194946 | 71 | 224 | 0.0 | 1.7 | 0.00 | 0.00 | 0.00 | 92 | 1023.1 |
| 20260905194446 | 71 | 229 | 0.0 | 1.7 | 0.00 | 0.00 | 0.00 | 92 | 1023.0 |
| 20260905193945 | 71 | 145 | 0.0 | 1.7 | 0.00 | 0.00 | 0.00 | 91 | 1023.0 |
| 20260905193448 | 71 | 134 | 0.0 | 2.6 | 0.00 | 0.00 | 0.00 | 91 | 1023.0 |
| 20260905192948 | 71 | 127 | 0.0 | 2.6 | 0.00 | 0.00 | 0.00 | 90 | 1022.9 |
| 20260905191945 | 72 | 195 | 0.0 | 2.6 | 0.00 | 0.00 | 0.00 | 89 | 1023.0 |
| 20260905190945 | 72 | 196 | 0.0 | 2.6 | 0.00 | 0.00 | 0.00 | 88 | 1022.8 |
| 20260905190446 | 72 | 124 | 0.0 | 2.6 | 0.00 | 0.00 | 0.00 | 88 | 1022.7 |